| time (UTC) | temp C | wind direction | speed KPH | gust KPH | rain 1hr cm | rain 24hr cm | rain mn cm | humidity % | barometer mb |
| 20260504003457 | 31 | 210 | 3.2 | 8.0 | 0.00 | 0.00 | 0.00 | 36 | 1008.8 |
| 20260504002954 | 31 | 246 | 1.6 | 4.8 | 0.00 | 0.00 | 0.00 | 36 | 1008.7 |
| 20260504002451 | 31 | 237 | 3.2 | 4.8 | 0.00 | 0.00 | 0.00 | 36 | 1009.0 |
| 20260504001948 | 31 | 204 | 1.6 | 3.2 | 0.00 | 0.00 | 0.00 | 35 | 1009.1 |
| 20260504001446 | 31 | 192 | 4.8 | 6.4 | 0.00 | 0.00 | 0.00 | 34 | 1008.8 |
| 20260504000942 | 31 | 192 | 0.0 | 8.0 | 0.00 | 0.00 | 0.00 | 34 | 1008.7 |
| 20260504000439 | 31 | 187 | 0.0 | 3.2 | 0.00 | 0.00 | 0.00 | 34 | 1009.0 |
| 20260503235936 | 31 | 140 | 3.2 | 4.8 | 0.00 | 0.00 | 0.00 | 35 | 1009.2 |
| 20260503235434 | 31 | 206 | 1.6 | 3.2 | 0.00 | 0.00 | 0.00 | 35 | 1009.0 |
| 20260503234931 | 31 | 192 | 1.6 | 6.4 | 0.00 | 0.00 | 0.00 | 35 | 1009.1 |
| 20260503234429 | 31 | 204 | 1.6 | 3.2 | 0.00 | 0.00 | 0.00 | 36 | 1009.2 |
| 20260503233927 | 31 | 258 | 0.0 | 6.4 | 0.00 | 0.00 | 0.00 | 35 | 1009.2 |
| 20260503233423 | 31 | 121 | 3.2 | 4.8 | 0.00 | 0.00 | 0.00 | 34 | 1009.3 |
| 20260503232919 | 31 | 181 | 6.4 | 6.4 | 0.00 | 0.00 | 0.00 | 34 | 1009.2 |
| 20260503232416 | 31 | 133 | 3.2 | 4.8 | 0.00 | 0.00 | 0.00 | 36 | 1009.3 |
| 20260503231914 | 31 | 267 | 1.6 | 4.8 | 0.00 | 0.00 | 0.00 | 36 | 1009.3 |
| 20260503231411 | 31 | 180 | 1.6 | 4.8 | 0.00 | 0.00 | 0.00 | 37 | 1009.5 |
| 20260503230908 | 31 | 102 | 3.2 | 8.0 | 0.00 | 0.00 | 0.00 | 33 | 1009.5 |
| 20260503230404 | 31 | 210 | 0.0 | 6.4 | 0.00 | 0.00 | 0.00 | 37 | 1009.7 |
| 20260503225902 | 31 | 227 | 1.6 | 4.8 | 0.00 | 0.00 | 0.00 | 38 | 1009.7 |
| 20260503225358 | 31 | 44 | 3.2 | 4.8 | 0.00 | 0.00 | 0.00 | 35 | 1009.9 |
| 20260503224854 | 31 | 123 | 1.6 | 6.4 | 0.00 | 0.00 | 0.00 | 37 | 1009.7 |
| 20260503224351 | 30 | 173 | 0.0 | 8.0 | 0.00 | 0.00 | 0.00 | 36 | 1009.9 |
| 20260503223849 | 30 | 135 | 1.6 | 9.7 | 0.00 | 0.00 | 0.00 | 36 | 1010.0 |
| 20260503223347 | 30 | 185 | 3.2 | 8.0 | 0.00 | 0.00 | 0.00 | 37 | 1010.0 |
| 20260503222842 | 30 | 237 | 4.8 | 8.0 | 0.00 | 0.00 | 0.00 | 36 | 1010.2 |
| 20260503222341 | 30 | 97 | 3.2 | 4.8 | 0.00 | 0.00 | 0.00 | 36 | 1010.5 |
| 20260503221838 | 30 | 108 | 0.0 | 4.8 | 0.00 | 0.00 | 0.00 | 37 | 1010.3 |
| 20260503221337 | 30 | 121 | 6.4 | 8.0 | 0.00 | 0.00 | 0.00 | 36 | 1010.3 |
| 20260503220832 | 30 | 185 | 0.0 | 6.4 | 0.00 | 0.00 | 0.00 | 36 | 1010.4 |
| 20260503220330 | 30 | 192 | 4.8 | 6.4 | 0.00 | 0.00 | 0.00 | 34 | 1010.6 |
| 20260503215826 | 30 | 186 | 1.6 | 6.4 | 0.00 | 0.00 | 0.00 | 37 | 1010.8 |
| 20260503215324 | 30 | 192 | 4.8 | 6.4 | 0.00 | 0.00 | 0.00 | 37 | 1010.7 |
| 20260503214821 | 30 | 142 | 4.8 | 6.4 | 0.00 | 0.00 | 0.00 | 34 | 1010.9 |
| 20260503214318 | 30 | 102 | 0.0 | 4.8 | 0.00 | 0.00 | 0.00 | 37 | 1010.9 |
| 20260503213816 | 30 | 174 | 1.6 | 6.4 | 0.00 | 0.00 | 0.00 | 37 | 1010.7 |
| 20260503213313 | 30 | 159 | 3.2 | 8.0 | 0.00 | 0.00 | 0.00 | 36 | 1011.1 |
| 20260503212810 | 29 | 195 | 4.8 | 6.4 | 0.00 | 0.00 | 0.00 | 37 | 1010.8 |
| 20260503212308 | 29 | 136 | 4.8 | 6.4 | 0.00 | 0.00 | 0.00 | 38 | 1011.2 |
| 20260503211805 | 29 | 89 | 3.2 | 6.4 | 0.00 | 0.00 | 0.00 | 37 | 1011.0 |
| 20260503211302 | 29 | 110 | 4.8 | 8.0 | 0.00 | 0.00 | 0.00 | 37 | 1011.1 |
| 20260503210801 | 28 | 195 | 3.2 | 4.8 | 0.00 | 0.00 | 0.00 | 36 | 1011.4 |
| 20260503210259 | 28 | 135 | 1.6 | 6.4 | 0.00 | 0.00 | 0.00 | 38 | 1011.1 |
| 20260503205754 | 28 | 127 | 3.2 | 9.7 | 0.00 | 0.00 | 0.00 | 37 | 1011.2 |
| 20260503205251 | 28 | 100 | 8.0 | 9.7 | 0.00 | 0.00 | 0.00 | 35 | 1011.3 |
| 20260503204748 | 28 | 138 | 4.8 | 8.0 | 0.00 | 0.00 | 0.00 | 40 | 1011.4 |
| 20260503204245 | 28 | 170 | 3.2 | 6.4 | 0.00 | 0.00 | 0.00 | 42 | 1011.5 |
| 20260503203743 | 28 | 129 | 6.4 | 6.4 | 0.00 | 0.00 | 0.00 | 39 | 1011.5 |
| 20260503203240 | 27 | 240 | 3.2 | 8.0 | 0.00 | 0.00 | 0.00 | 39 | 1011.6 |
| 20260503202737 | 28 | 38 | 0.0 | 8.0 | 0.00 | 0.00 | 0.00 | 38 | 1011.6 |
| 20260503202235 | 28 | 192 | 1.6 | 6.4 | 0.00 | 0.00 | 0.00 | 39 | 1011.8 |
| 20260503201732 | 28 | 180 | 3.2 | 8.0 | 0.00 | 0.00 | 0.00 | 39 | 1012.1 |
| 20260503201230 | 27 | 171 | 0.0 | 8.0 | 0.00 | 0.00 | 0.00 | 41 | 1012.0 |
| 20260503200726 | 27 | 122 | 3.2 | 8.0 | 0.00 | 0.00 | 0.00 | 40 | 1012.1 |
| 20260503200222 | 27 | 126 | 3.2 | 11.3 | 0.00 | 0.00 | 0.00 | 37 | 1012.2 |
| 20260503195719 | 27 | 73 | 3.2 | 11.3 | 0.00 | 0.00 | 0.00 | 41 | 1012.3 |
| 20260503195216 | 27 | 117 | 6.4 | 8.0 | 0.00 | 0.00 | 0.00 | 40 | 1012.3 |
| 20260503194714 | 27 | 117 | 3.2 | 6.4 | 0.00 | 0.00 | 0.00 | 39 | 1012.3 |
| 20260503194210 | 27 | 141 | 0.0 | 6.4 | 0.00 | 0.00 | 0.00 | 43 | 1012.3 |
| 20260503193706 | 27 | 124 | 4.8 | 8.0 | 0.00 | 0.00 | 0.00 | 41 | 1012.4 |
| 20260503193202 | 27 | 122 | 0.0 | 6.4 | 0.00 | 0.00 | 0.00 | 43 | 1012.4 |
| 20260503192657 | 26 | 144 | 3.2 | 8.0 | 0.00 | 0.00 | 0.00 | 39 | 1012.4 |
| 20260503192153 | 26 | 192 | 1.6 | 11.3 | 0.00 | 0.00 | 0.00 | 39 | 1012.5 |
| 20260503191649 | 26 | 109 | 6.4 | 8.0 | 0.00 | 0.00 | 0.00 | 42 | 1012.7 |
| 20260503191147 | 26 | 97 | 6.4 | 9.7 | 0.00 | 0.00 | 0.00 | 41 | 1012.7 |
| 20260503190644 | 26 | 123 | 11.3 | 11.3 | 0.00 | 0.00 | 0.00 | 40 | 1012.7 |
| 20260503190141 | 26 | 163 | 1.6 | 8.0 | 0.00 | 0.00 | 0.00 | 42 | 1012.8 |
| 20260503185637 | 26 | 157 | 1.6 | 6.4 | 0.00 | 0.00 | 0.00 | 44 | 1012.7 |
| 20260503185132 | 25 | 181 | 0.0 | 6.4 | 0.00 | 0.00 | 0.00 | 44 | 1012.9 |
| 20260503184628 | 25 | 127 | 4.8 | 6.4 | 0.00 | 0.00 | 0.00 | 45 | 1012.9 |
| 20260503184125 | 25 | 225 | 3.2 | 6.4 | 0.00 | 0.00 | 0.00 | 44 | 1013.1 |
| 20260503183621 | 25 | 210 | 1.6 | 8.0 | 0.00 | 0.00 | 0.00 | 45 | 1012.9 |
| 20260503183118 | 25 | 122 | 8.0 | 8.0 | 0.00 | 0.00 | 0.00 | 43 | 1013.1 |
| 20260503182617 | 25 | 159 | 3.2 | 6.4 | 0.00 | 0.00 | 0.00 | 47 | 1013.1 |
| 20260503182115 | 25 | 99 | 4.8 | 6.4 | 0.00 | 0.00 | 0.00 | 50 | 1013.2 |
| 20260503181611 | 24 | 192 | 3.2 | 6.4 | 0.00 | 0.00 | 0.00 | 50 | 1013.2 |
| 20260503181108 | 23 | 224 | 4.8 | 8.0 | 0.00 | 0.00 | 0.00 | 49 | 1013.2 |
| 20260503180605 | 23 | 125 | 0.0 | 8.0 | 0.00 | 0.00 | 0.00 | 49 | 1013.3 |
| 20260503180103 | 23 | 89 | 1.6 | 8.0 | 0.00 | 0.00 | 0.00 | 47 | 1013.3 |
| 20260503175559 | 23 | 199 | 4.8 | 6.4 | 0.00 | 0.00 | 0.00 | 49 | 1013.5 |
| 20260503175057 | 23 | 139 | 0.0 | 4.8 | 0.00 | 0.00 | 0.00 | 47 | 1013.4 |
| 20260503174553 | 22 | 85 | 4.8 | 6.4 | 0.00 | 0.00 | 0.00 | 48 | 1013.5 |
| 20260503174050 | 22 | 156 | 3.2 | 8.0 | 0.00 | 0.00 | 0.00 | 49 | 1013.6 |
| 20260503173545 | 22 | 80 | 3.2 | 8.0 | 0.00 | 0.00 | 0.00 | 48 | 1013.5 |
| 20260503173042 | 22 | 185 | 0.0 | 4.8 | 0.00 | 0.00 | 0.00 | 50 | 1013.6 |
| 20260503172539 | 22 | 155 | 0.0 | 11.3 | 0.00 | 0.00 | 0.00 | 49 | 1013.4 |
| 20260503172036 | 21 | 121 | 3.2 | 11.3 | 0.00 | 0.00 | 0.00 | 51 | 1013.6 |
| 20260503171533 | 21 | 99 | 6.4 | 8.0 | 0.00 | 0.00 | 0.00 | 53 | 1013.7 |
| 20260503171030 | 21 | 282 | 0.0 | 9.7 | 0.00 | 0.00 | 0.00 | 55 | 1013.7 |
| 20260503170526 | 21 | 126 | 0.0 | 6.4 | 0.00 | 0.00 | 0.00 | 55 | 1013.6 |
| 20260503150919 | 12 | 97 | 3.2 | 3.2 | 0.00 | 0.00 | 0.00 | 85 | 1014.3 |
| 20260503150415 | 12 | 102 | 0.0 | 1.6 | 0.00 | 0.00 | 0.00 | 86 | 1014.2 |
| 20260503131308 | 10 | 41 | 0.0 | 1.6 | 0.00 | 0.00 | 0.00 | 92 | 1013.9 |
| 20260503130806 | 10 | 12 | 1.6 | 1.6 | 0.00 | 0.00 | 0.00 | 92 | 1014.1 |
| 20260503130303 | 10 | 5 | 0.0 | 0.0 | 0.00 | 0.00 | 0.00 | 92 | 1013.9 |
| 20260503110657 | 10 | 5 | 0.0 | 0.0 | 0.00 | 0.00 | 0.00 | 91 | 1014.0 |
| 20260503110154 | 10 | 5 | 0.0 | 0.0 | 0.00 | 0.00 | 0.00 | 90 | 1014.5 |
| 20260503100120 | 10 | 19 | 0.0 | 0.0 | 0.00 | 0.00 | 0.00 | 89 | 1014.2 |
| 20260503081510 | 11 | 19 | 0.0 | 1.6 | 0.00 | 0.00 | 0.00 | 87 | 1014.9 |
| 20260503081007 | 11 | 358 | 0.0 | 1.6 | 0.00 | 0.00 | 0.00 | 86 | 1014.5 |
| 20260503080503 | 11 | 343 | 1.6 | 1.6 | 0.00 | 0.00 | 0.00 | 86 | 1014.7 |
| 20260503072940 | 11 | 306 | 0.0 | 0.0 | 0.00 | 0.00 | 0.00 | 84 | 1014.6 |
| 20260503072437 | 11 | 312 | 0.0 | 0.0 | 0.00 | 0.00 | 0.00 | 85 | 1014.7 |
| 20260503071934 | 11 | 312 | 1.6 | 1.6 | 0.00 | 0.00 | 0.00 | 85 | 1014.4 |
| 20260503071431 | 11 | 282 | 0.0 | 0.0 | 0.00 | 0.00 | 0.00 | 85 | 1014.7 |
| 20260503070927 | 11 | 303 | 0.0 | 0.0 | 0.00 | 0.00 | 0.00 | 85 | 1014.7 |
| 20260503070424 | 11 | 349 | 0.0 | 0.0 | 0.00 | 0.00 | 0.00 | 85 | 1014.9 |
| 20260503054838 | 12 | 323 | 0.0 | 1.6 | 0.00 | 0.00 | 0.00 | 81 | 1014.7 |
| 20260503054334 | 12 | 306 | 0.0 | 0.0 | 0.00 | 0.00 | 0.00 | 81 | 1014.6 |
| 20260503053832 | 12 | 306 | 0.0 | 0.0 | 0.00 | 0.00 | 0.00 | 81 | 1014.5 |
| 20260503053330 | 12 | 306 | 0.0 | 1.6 | 0.00 | 0.00 | 0.00 | 81 | 1014.8 |
| 20260503052826 | 13 | 306 | 0.0 | 0.0 | 0.00 | 0.00 | 0.00 | 81 | 1014.6 |
| 20260503052323 | 13 | 306 | 0.0 | 0.0 | 0.00 | 0.00 | 0.00 | 81 | 1014.4 |
| 20260503051819 | 13 | 306 | 0.0 | 0.0 | 0.00 | 0.00 | 0.00 | 81 | 1014.4 |
| 20260503051316 | 13 | 306 | 0.0 | 1.6 | 0.00 | 0.00 | 0.00 | 80 | 1014.6 |
| 20260503050812 | 13 | 349 | 0.0 | 1.6 | 0.00 | 0.00 | 0.00 | 80 | 1014.5 |
| 20260503050309 | 13 | 289 | 0.0 | 0.0 | 0.00 | 0.00 | 0.00 | 80 | 1014.5 |
| 20260503045807 | 13 | 289 | 0.0 | 0.0 | 0.00 | 0.00 | 0.00 | 80 | 1014.4 |
| 20260503045305 | 13 | 272 | 0.0 | 4.8 | 0.00 | 0.00 | 0.00 | 79 | 1014.5 |
| 20260503044800 | 13 | 289 | 0.0 | 3.2 | 0.00 | 0.00 | 0.00 | 79 | 1014.2 |
| 20260503044257 | 13 | 267 | 0.0 | 4.8 | 0.00 | 0.00 | 0.00 | 78 | 1014.4 |
| 20260503043754 | 13 | 290 | 0.0 | 0.0 | 0.00 | 0.00 | 0.00 | 77 | 1014.1 |
| 20260503043251 | 13 | 282 | 0.0 | 1.6 | 0.00 | 0.00 | 0.00 | 77 | 1014.2 |
| 20260503042747 | 13 | 289 | 0.0 | 1.6 | 0.00 | 0.00 | 0.00 | 77 | 1014.0 |
| 20260503042244 | 14 | 288 | 3.2 | 4.8 | 0.00 | 0.00 | 0.00 | 77 | 1014.1 |
| 20260503041740 | 14 | 266 | 0.0 | 3.2 | 0.00 | 0.00 | 0.00 | 76 | 1013.8 |
| 20260503041238 | 14 | 237 | 3.2 | 3.2 | 0.00 | 0.00 | 0.00 | 75 | 1013.8 |
| 20260503040735 | 15 | 282 | 3.2 | 3.2 | 0.00 | 0.00 | 0.00 | 75 | 1013.8 |
| 20260503040233 | 15 | 275 | 0.0 | 3.2 | 0.00 | 0.00 | 0.00 | 74 | 1013.8 |
| 20260503035729 | 15 | 282 | 0.0 | 4.8 | 0.00 | 0.00 | 0.00 | 73 | 1013.5 |
| 20260503035227 | 15 | 282 | 0.0 | 0.0 | 0.00 | 0.00 | 0.00 | 73 | 1013.6 |
| 20260503034724 | 15 | 282 | 0.0 | 3.2 | 0.00 | 0.00 | 0.00 | 72 | 1013.3 |
| 20260503034221 | 16 | 268 | 4.8 | 4.8 | 0.00 | 0.00 | 0.00 | 72 | 1013.4 |
| 20260503033718 | 16 | 282 | 0.0 | 4.8 | 0.00 | 0.00 | 0.00 | 71 | 1013.3 |
| 20260503033216 | 16 | 252 | 1.6 | 1.6 | 0.00 | 0.00 | 0.00 | 70 | 1013.4 |
| 20260503032714 | 16 | 246 | 1.6 | 4.8 | 0.00 | 0.00 | 0.00 | 69 | 1013.3 |
| 20260503032213 | 17 | 276 | 0.0 | 4.8 | 0.00 | 0.00 | 0.00 | 69 | 1013.2 |
| 20260503031709 | 17 | 270 | 0.0 | 6.4 | 0.00 | 0.00 | 0.00 | 68 | 1013.1 |
| 20260503031208 | 17 | 263 | 0.0 | 0.0 | 0.00 | 0.00 | 0.00 | 67 | 1013.2 |
| 20260503030703 | 17 | 282 | 0.0 | 0.0 | 0.00 | 0.00 | 0.00 | 66 | 1013.0 |
| 20260503030159 | 18 | 258 | 0.0 | 1.6 | 0.00 | 0.00 | 0.00 | 66 | 1012.9 |
| 20260503025656 | 18 | 237 | 0.0 | 3.2 | 0.00 | 0.00 | 0.00 | 65 | 1012.8 |
| 20260503025154 | 18 | 258 | 0.0 | 3.2 | 0.00 | 0.00 | 0.00 | 64 | 1012.9 |
| 20260503024650 | 19 | 216 | 3.2 | 4.8 | 0.00 | 0.00 | 0.00 | 63 | 1012.8 |
| 20260503024148 | 20 | 258 | 0.0 | 8.0 | 0.00 | 0.00 | 0.00 | 62 | 1012.8 |
| 20260503023645 | 20 | 290 | 0.0 | 0.0 | 0.00 | 0.00 | 0.00 | 63 | 1012.6 |
| 20260503023141 | 20 | 261 | 0.0 | 1.6 | 0.00 | 0.00 | 0.00 | 62 | 1012.8 |
| 20260503022637 | 20 | 274 | 0.0 | 3.2 | 0.00 | 0.00 | 0.00 | 62 | 1012.5 |
| 20260503022132 | 20 | 263 | 1.6 | 4.8 | 0.00 | 0.00 | 0.00 | 62 | 1012.7 |
| 20260503021629 | 20 | 272 | 4.8 | 8.0 | 0.00 | 0.00 | 0.00 | 61 | 1012.6 |
| 20260503021126 | 20 | 237 | 4.8 | 6.4 | 0.00 | 0.00 | 0.00 | 61 | 1012.5 |
| 20260503020623 | 21 | 208 | 1.6 | 6.4 | 0.00 | 0.00 | 0.00 | 60 | 1012.6 |
| 20260503020120 | 21 | 197 | 0.0 | 6.4 | 0.00 | 0.00 | 0.00 | 60 | 1012.4 |
| 20260503015617 | 21 | 237 | 0.0 | 6.4 | 0.00 | 0.00 | 0.00 | 60 | 1012.5 |
| 20260503015114 | 21 | 227 | 0.0 | 9.7 | 0.00 | 0.00 | 0.00 | 59 | 1012.4 |
| 20260503014609 | 22 | 245 | 4.8 | 8.0 | 0.00 | 0.00 | 0.00 | 58 | 1012.5 |
| 20260503014107 | 22 | 192 | 3.2 | 6.4 | 0.00 | 0.00 | 0.00 | 59 | 1012.4 |
| 20260503013604 | 22 | 282 | 6.4 | 6.4 | 0.00 | 0.00 | 0.00 | 58 | 1012.5 |
| 20260503013103 | 22 | 271 | 3.2 | 9.7 | 0.00 | 0.00 | 0.00 | 58 | 1012.4 |
| 20260503012600 | 23 | 213 | 0.0 | 6.4 | 0.00 | 0.00 | 0.00 | 58 | 1012.7 |
| 20260503012056 | 23 | 251 | 4.8 | 4.8 | 0.00 | 0.00 | 0.00 | 58 | 1012.4 |
| 20260503011552 | 23 | 206 | 1.6 | 4.8 | 0.00 | 0.00 | 0.00 | 56 | 1012.4 |
| 20260503011050 | 23 | 282 | 0.0 | 6.4 | 0.00 | 0.00 | 0.00 | 57 | 1012.7 |
| 20260503010546 | 23 | 266 | 0.0 | 4.8 | 0.00 | 0.00 | 0.00 | 57 | 1012.6 |
| 20260503010044 | 24 | 232 | 1.6 | 6.4 | 0.00 | 0.00 | 0.00 | 56 | 1012.6 |
| 20260503005540 | 24 | 255 | 0.0 | 6.4 | 0.00 | 0.00 | 0.00 | 55 | 1012.6 |
| 20260503005038 | 25 | 218 | 3.2 | 8.0 | 0.00 | 0.00 | 0.00 | 55 | 1012.6 |
| 20260503004534 | 25 | 218 | 3.2 | 4.8 | 0.00 | 0.00 | 0.00 | 56 | 1012.7 |
| 20260503004032 | 25 | 225 | 3.2 | 8.0 | 0.00 | 0.00 | 0.00 | 55 | 1012.6 |